Time,TemperatureF,DewpointF,PressureIn,WindDirection,WindDirectionDegrees,WindSpeedMPH,WindSpeedGustMPH,Humidity,HourlyPrecipIn,Conditions,Clouds,dailyrainin,SoftwareType,DateUTC
2013-04-02 00:02:00,26.6,20.1,30.07,WNW,300,5.6,8.1,76,0.00,CLR,SKC,0.00,WeatherDisplay:10.37,2013-04-02 05:02:00,
2013-04-02 00:07:00,26.6,20.1,30.07,WNW,302,5.6,9.2,76,0.00,CLR,SKC,0.00,WeatherDisplay:10.37,2013-04-02 05:07:00,
2013-04-02 00:12:00,26.5,20.0,30.07,WNW,302,4.8,6.9,76,0.00,CLR,SKC,0.00,WeatherDisplay:10.37,2013-04-02 05:12:00,
2013-04-02 00:17:00,26.4,19.9,30.07,WNW,298,4.6,6.9,76,0.00,CLR,SKC,0.00,WeatherDisplay:10.37,2013-04-02 05:17:00,
2013-04-02 00:22:00,26.4,19.9,30.07,WNW,298,4.7,6.0,76,0.00,CLR,SKC,0.00,WeatherDisplay:10.37,2013-04-02 05:22:00,
2013-04-02 00:28:00,26.3,19.8,30.06,WNW,298,4.4,5.8,76,0.00,CLR,SKC,0.00,WeatherDisplay:10.37,2013-04-02 05:28:00,
2013-04-02 00:33:00,26.2,19.7,30.07,WNW,302,4.7,5.8,76,0.00,CLR,SKC,0.00,WeatherDisplay:10.37,2013-04-02 05:33:00,
2013-04-02 00:38:00,26.2,19.4,30.06,WNW,302,4.8,6.0,75,0.00,CLR,SKC,0.00,WeatherDisplay:10.37,2013-04-02 05:38:00,
2013-04-02 00:43:00,26.1,19.3,30.07,WNW,301,4.6,6.0,75,0.00,CLR,SKC,0.00,WeatherDisplay:10.37,2013-04-02 05:43:00,
2013-04-02 00:48:00,26.1,19.3,30.07,WNW,300,4.1,5.0,75,0.00,CLR,SKC,0.00,WeatherDisplay:10.37,2013-04-02 05:48:00,
2013-04-02 00:53:00,26.0,19.5,30.06,WNW,300,4.2,5.0,76,0.00,CLR,SKC,0.00,WeatherDisplay:10.37,2013-04-02 05:53:00,
2013-04-02 00:58:00,25.9,19.4,30.07,WNW,300,4.2,5.0,76,0.00,CLR,SKC,0.00,WeatherDisplay:10.37,2013-04-02 05:58:00,
2013-04-02 01:03:00,25.9,19.4,30.07,WNW,300,4.5,5.0,76,0.00,CLR,SKC,0.00,WeatherDisplay:10.37,2013-04-02 06:03:00,
2013-04-02 01:09:00,26.0,19.5,30.07,WNW,298,4.7,6.9,76,0.00,CLR,SKC,0.00,WeatherDisplay:10.37,2013-04-02 06:09:00,
2013-04-02 01:14:00,25.9,19.4,30.07,WNW,294,5.6,7.0,76,0.00,CLR,SKC,0.00,WeatherDisplay:10.37,2013-04-02 06:14:00,
2013-04-02 01:19:00,25.8,19.0,30.07,WNW,298,4.6,6.9,75,0.00,CLR,SKC,0.00,WeatherDisplay:10.37,2013-04-02 06:19:00,
2013-04-02 01:24:00,25.7,19.2,30.07,WNW,302,5.5,6.9,76,0.00,CLR,SKC,0.00,WeatherDisplay:10.37,2013-04-02 06:24:00,
2013-04-02 01:29:00,25.7,18.9,30.06,WNW,296,5.1,6.9,75,0.00,CLR,SKC,0.00,WeatherDisplay:10.37,2013-04-02 06:29:00,
2013-04-02 01:34:00,25.7,18.9,30.07,WNW,294,4.9,6.9,75,0.00,CLR,SKC,0.00,WeatherDisplay:10.37,2013-04-02 06:34:00,
2013-04-02 01:39:00,25.6,19.1,30.07,WNW,294,5.1,6.0,76,0.00,CLR,SKC,0.00,WeatherDisplay:10.37,2013-04-02 06:39:00,
2013-04-02 01:44:00,25.5,19.0,30.07,WNW,294,4.1,5.8,76,0.00,CLR,SKC,0.00,WeatherDisplay:10.37,2013-04-02 06:44:00,
2013-04-02 01:49:00,25.4,18.9,30.07,WNW,293,4.6,5.0,76,0.00,CLR,SKC,0.00,WeatherDisplay:10.37,2013-04-02 06:49:00,
2013-04-02 01:54:00,25.3,18.8,30.07,WNW,293,4.4,5.8,76,0.00,CLR,SKC,0.00,WeatherDisplay:10.37,2013-04-02 06:54:00,
2013-04-02 01:59:00,25.3,18.8,30.07,WNW,293,4.6,6.0,76,0.00,CLR,SKC,0.00,WeatherDisplay:10.37,2013-04-02 06:59:00,
2013-04-02 02:04:00,25.3,18.8,30.07,WNW,292,4.0,5.0,76,0.00,CLR,SKC,0.00,WeatherDisplay:10.37,2013-04-02 07:04:00,
2013-04-02 02:09:00,25.2,18.7,30.07,WNW,296,5.0,6.9,76,0.00,CLR,SKC,0.00,WeatherDisplay:10.37,2013-04-02 07:09:00,
2013-04-02 02:14:00,25.2,18.7,30.07,NW,304,5.5,8.1,76,0.00,CLR,SKC,0.00,WeatherDisplay:10.37,2013-04-02 07:14:00,
2013-04-02 02:19:00,25.2,18.7,30.07,WNW,299,4.5,5.8,76,0.00,CLR,SKC,0.00,WeatherDisplay:10.37,2013-04-02 07:19:00,
2013-04-02 02:24:00,25.1,18.6,30.07,WNW,300,4.5,6.0,76,0.00,CLR,SKC,0.00,WeatherDisplay:10.37,2013-04-02 07:24:00,
2013-04-02 02:29:00,25.0,18.5,30.07,WNW,302,4.1,6.0,76,0.00,CLR,SKC,0.00,WeatherDisplay:10.37,2013-04-02 07:29:00,
2013-04-02 02:34:00,24.9,18.4,30.07,WNW,302,3.9,5.0,76,0.00,CLR,SKC,0.00,WeatherDisplay:10.37,2013-04-02 07:34:00,
2013-04-02 02:39:00,24.9,18.4,30.07,NW,304,3.8,5.0,76,0.00,CLR,SKC,0.00,WeatherDisplay:10.37,2013-04-02 07:39:00,
2013-04-02 02:44:00,24.8,18.3,30.06,WNW,302,3.8,6.0,76,0.00,CLR,SKC,0.00,WeatherDisplay:10.37,2013-04-02 07:44:00,
2013-04-02 02:50:00,24.7,18.2,30.06,WNW,302,3.1,4.6,76,0.00,CLR,SKC,0.00,WeatherDisplay:10.37,2013-04-02 07:50:00,
2013-04-02 02:55:00,24.7,18.2,30.06,WNW,302,3.2,4.6,76,0.00,CLR,SKC,0.00,WeatherDisplay:10.37,2013-04-02 07:55:00,
2013-04-02 03:00:00,24.6,18.1,30.06,WNW,302,2.8,4.0,76,0.00,CLR,SKC,0.00,WeatherDisplay:10.37,2013-04-02 08:00:00,
2013-04-02 03:05:00,24.5,18.0,30.06,WNW,297,3.8,5.0,76,0.00,CLR,SKC,0.00,WeatherDisplay:10.37,2013-04-02 08:05:00,
2013-04-02 03:10:00,24.5,18.0,30.06,WNW,297,3.9,5.0,76,0.00,CLR,SKC,0.00,WeatherDisplay:10.37,2013-04-02 08:10:00,
2013-04-02 03:15:00,24.4,17.9,30.06,WNW,297,3.9,5.0,76,0.00,CLR,SKC,0.00,WeatherDisplay:10.37,2013-04-02 08:15:00,
2013-04-02 03:20:00,24.4,17.9,30.06,WNW,297,3.6,5.0,76,0.00,CLR,SKC,0.00,WeatherDisplay:10.37,2013-04-02 08:20:00,
2013-04-02 03:25:00,24.3,17.8,30.06,WNW,297,2.9,4.0,76,0.00,CLR,SKC,0.00,WeatherDisplay:10.37,2013-04-02 08:25:00,
2013-04-02 03:30:00,24.3,17.8,30.06,WNW,297,3.0,4.6,76,0.00,CLR,SKC,0.00,WeatherDisplay:10.37,2013-04-02 08:30:00,
2013-04-02 03:35:00,24.2,17.7,30.06,WNW,296,3.8,4.6,76,0.00,CLR,SKC,0.00,WeatherDisplay:10.37,2013-04-02 08:35:00,
2013-04-02 03:40:00,24.2,17.7,30.06,WNW,297,2.5,3.5,76,0.00,CLR,SKC,0.00,WeatherDisplay:10.37,2013-04-02 08:40:00,
2013-04-02 03:45:00,24.1,17.6,30.06,WNW,299,3.8,5.0,76,0.00,CLR,SKC,0.00,WeatherDisplay:10.37,2013-04-02 08:45:00,
2013-04-02 03:50:00,24.0,17.5,30.06,WNW,299,2.3,3.5,76,0.00,CLR,SKC,0.00,WeatherDisplay:10.37,2013-04-02 08:50:00,
2013-04-02 03:55:00,23.9,17.4,30.06,WNW,299,2.7,4.0,76,0.00,CLR,SKC,0.00,WeatherDisplay:10.37,2013-04-02 08:55:00,
2013-04-02 04:00:00,23.8,17.3,30.06,WNW,299,2.7,3.5,76,0.00,CLR,SKC,0.00,WeatherDisplay:10.37,2013-04-02 09:00:00,
2013-04-02 04:05:00,23.7,17.2,30.06,WNW,299,3.1,4.0,76,0.00,CLR,SKC,0.00,WeatherDisplay:10.37,2013-04-02 09:05:00,
2013-04-02 04:10:00,23.7,17.2,30.06,WNW,299,2.7,4.6,76,0.00,CLR,SKC,0.00,WeatherDisplay:10.37,2013-04-02 09:10:00,
2013-04-02 04:15:00,23.6,17.1,30.06,WNW,299,3.7,5.0,76,0.00,CLR,SKC,0.00,WeatherDisplay:10.37,2013-04-02 09:15:00,
2013-04-02 04:20:00,23.6,17.1,30.06,WNW,300,3.6,4.6,76,0.00,CLR,SKC,0.00,WeatherDisplay:10.37,2013-04-02 09:20:00,
2013-04-02 04:25:00,23.5,17.0,30.06,WNW,300,2.8,4.0,76,0.00,CLR,SKC,0.00,WeatherDisplay:10.37,2013-04-02 09:25:00,
2013-04-02 04:30:00,23.5,17.0,30.06,WNW,300,2.6,4.0,76,0.00,CLR,SKC,0.00,WeatherDisplay:10.37,2013-04-02 09:30:00,
2013-04-02 04:35:00,23.4,17.3,30.06,WNW,300,2.7,4.0,77,0.00,CLR,SKC,0.00,WeatherDisplay:10.37,2013-04-02 09:35:00,
2013-04-02 04:40:00,23.3,17.2,30.06,WNW,300,2.1,3.5,77,0.00,CLR,SKC,0.00,WeatherDisplay:10.37,2013-04-02 09:40:00,
2013-04-02 04:45:00,23.2,17.1,30.06,WNW,300,2.0,3.5,77,0.00,CLR,SKC,0.00,WeatherDisplay:10.37,2013-04-02 09:45:00,
2013-04-02 04:50:00,23.1,17.0,30.06,WNW,300,2.8,4.0,77,0.00,CLR,SKC,0.00,WeatherDisplay:10.37,2013-04-02 09:50:00,
2013-04-02 04:55:00,23.2,17.1,30.06,WNW,299,2.8,4.0,77,0.00,CLR,SKC,0.00,WeatherDisplay:10.37,2013-04-02 09:55:00,
2013-04-02 05:00:00,23.1,17.0,30.06,WNW,299,2.4,3.5,77,0.00,CLR,SKC,0.00,WeatherDisplay:10.37,2013-04-02 10:00:00,
2013-04-02 05:05:00,23.0,16.9,30.06,WNW,299,2.6,3.5,77,0.00,CLR,SKC,0.00,WeatherDisplay:10.37,2013-04-02 10:05:00,
2013-04-02 05:10:00,23.0,16.9,30.06,WNW,299,2.4,3.5,77,0.00,CLR,SKC,0.00,WeatherDisplay:10.37,2013-04-02 10:10:00,
2013-04-02 05:15:00,22.9,16.8,30.07,WNW,299,2.4,3.5,77,0.00,CLR,SKC,0.00,WeatherDisplay:10.37,2013-04-02 10:15:00,
2013-04-02 05:20:00,22.9,16.8,30.07,WNW,299,2.4,3.5,77,0.00,CLR,SKC,0.00,WeatherDisplay:10.37,2013-04-02 10:20:00,
2013-04-02 05:25:00,22.9,16.8,30.07,WNW,299,2.2,3.5,77,0.00,CLR,SKC,0.00,WeatherDisplay:10.37,2013-04-02 10:25:00,
2013-04-02 05:30:00,22.8,16.7,30.07,WNW,299,3.2,4.0,77,0.00,CLR,SKC,0.00,WeatherDisplay:10.37,2013-04-02 10:30:00,
2013-04-02 05:35:00,22.8,16.7,30.07,WNW,299,2.2,4.6,77,0.00,CLR,SKC,0.00,WeatherDisplay:10.37,2013-04-02 10:35:00,
2013-04-02 05:40:00,22.7,16.6,30.07,WNW,300,3.0,4.0,77,0.00,CLR,SKC,0.00,WeatherDisplay:10.37,2013-04-02 10:40:00,
2013-04-02 05:45:00,22.7,16.6,30.07,WNW,299,3.0,4.0,77,0.00,CLR,SKC,0.00,WeatherDisplay:10.37,2013-04-02 10:45:00,
2013-04-02 05:50:00,22.6,16.5,30.07,WNW,300,3.4,4.0,77,0.00,CLR,SKC,0.00,WeatherDisplay:10.37,2013-04-02 10:50:00,
2013-04-02 05:55:00,22.6,16.5,30.07,WNW,300,3.0,4.0,77,0.00,CLR,SKC,0.00,WeatherDisplay:10.37,2013-04-02 10:55:00,
2013-04-02 06:00:00,22.6,16.5,30.07,WNW,300,3.8,5.0,77,0.00,CLR,SKC,0.00,WeatherDisplay:10.37,2013-04-02 11:00:00,
2013-04-02 06:05:00,22.5,16.4,30.07,WNW,300,4.2,5.0,77,0.00,CLR,SKC,0.00,WeatherDisplay:10.37,2013-04-02 11:05:00,
2013-04-02 06:10:00,22.5,16.4,30.08,WNW,300,3.1,4.6,77,0.00,CLR,SKC,0.00,WeatherDisplay:10.37,2013-04-02 11:10:00,
2013-04-02 06:15:00,22.5,16.4,30.08,WNW,300,3.5,5.0,77,0.00,CLR,SKC,0.00,WeatherDisplay:10.37,2013-04-02 11:15:00,
2013-04-02 06:20:00,22.5,16.4,30.08,WNW,300,2.9,5.0,77,0.00,CLR,SKC,0.00,WeatherDisplay:10.37,2013-04-02 11:20:00,
2013-04-02 06:25:00,22.4,16.3,30.08,WNW,300,3.1,4.0,77,0.00,CLR,SKC,0.00,WeatherDisplay:10.37,2013-04-02 11:25:00,
2013-04-02 06:30:00,22.3,16.2,30.08,WNW,300,1.7,3.5,77,0.00,CLR,SKC,0.00,WeatherDisplay:10.37,2013-04-02 11:30:00,
2013-04-02 06:35:00,22.2,16.1,30.08,WNW,300,2.5,3.5,77,0.00,CLR,SKC,0.00,WeatherDisplay:10.37,2013-04-02 11:35:00,
2013-04-02 06:40:00,22.2,16.1,30.08,WNW,300,2.2,3.5,77,0.00,CLR,SKC,0.00,WeatherDisplay:10.37,2013-04-02 11:40:00,
2013-04-02 06:45:00,22.1,16.0,30.08,WNW,300,2.6,4.0,77,0.00,CLR,SKC,0.00,WeatherDisplay:10.37,2013-04-02 11:45:00,
2013-04-02 06:50:00,22.1,16.0,30.08,WNW,300,2.3,3.5,77,0.00,CLR,SKC,0.00,WeatherDisplay:10.37,2013-04-02 11:50:00,
2013-04-02 06:55:00,22.1,16.0,30.09,WNW,300,3.3,4.0,77,0.00,CLR,SKC,0.00,WeatherDisplay:10.37,2013-04-02 11:55:00,
2013-04-02 07:00:00,22.3,16.2,30.09,WNW,300,2.7,4.0,77,0.00,CLR,SKC,0.00,WeatherDisplay:10.37,2013-04-02 12:00:00,
2013-04-02 07:05:00,22.3,16.2,30.09,WNW,300,2.8,4.6,77,0.00,CLR,SKC,0.00,WeatherDisplay:10.37,2013-04-02 12:05:00,
2013-04-02 07:10:00,22.3,16.2,30.09,WNW,300,3.0,4.0,77,0.00,CLR,SKC,0.00,WeatherDisplay:10.37,2013-04-02 12:10:00,
2013-04-02 07:15:00,22.3,16.2,30.09,WNW,298,2.9,5.8,77,0.00,CLR,SKC,0.00,WeatherDisplay:10.37,2013-04-02 12:15:00,
2013-04-02 07:20:00,22.4,16.3,30.09,WNW,299,3.0,5.8,77,0.00,CLR,SKC,0.00,WeatherDisplay:10.37,2013-04-02 12:20:00,
2013-04-02 07:25:00,22.4,16.3,30.10,WNW,299,4.2,5.8,77,0.00,CLR,SKC,0.00,WeatherDisplay:10.37,2013-04-02 12:25:00,
2013-04-02 07:30:00,22.5,16.4,30.10,WNW,298,4.2,6.0,77,0.00,CLR,SKC,0.00,WeatherDisplay:10.37,2013-04-02 12:30:00,
2013-04-02 07:35:00,22.7,16.6,30.10,WNW,299,4.0,5.0,77,0.00,CLR,SKC,0.00,WeatherDisplay:10.37,2013-04-02 12:35:00,
2013-04-02 07:40:00,22.9,16.8,30.10,WNW,303,5.2,7.0,77,0.00,CLR,SKC,0.00,WeatherDisplay:10.37,2013-04-02 12:40:00,
2013-04-02 07:45:00,23.0,16.9,30.10,WNW,300,3.8,5.8,77,0.00,CLR,SKC,0.00,WeatherDisplay:10.37,2013-04-02 12:45:00,
2013-04-02 07:50:00,23.3,17.2,30.10,WNW,300,3.7,5.0,77,0.00,CLR,SKC,0.00,WeatherDisplay:10.37,2013-04-02 12:50:00,
2013-04-02 07:55:00,23.6,17.1,30.10,WNW,302,3.7,6.0,76,0.00,CLR,SKC,0.00,WeatherDisplay:10.37,2013-04-02 12:55:00,
2013-04-02 08:00:00,23.9,17.4,30.11,WNW,302,4.9,7.0,76,0.00,CLR,SKC,0.00,WeatherDisplay:10.37,2013-04-02 13:00:00,
2013-04-02 08:05:00,24.1,17.6,30.11,WNW,302,4.4,6.0,76,0.00,CLR,SKC,0.00,WeatherDisplay:10.37,2013-04-02 13:05:00,
2013-04-02 08:10:00,24.3,17.8,30.11,WNW,298,6.3,9.2,76,0.00,CLR,SKC,0.00,WeatherDisplay:10.37,2013-04-02 13:10:00,
2013-04-02 08:15:00,24.5,18.0,30.11,WNW,302,5.2,6.9,76,0.00,CLR,SKC,0.00,WeatherDisplay:10.37,2013-04-02 13:15:00,
2013-04-02 08:20:00,24.7,18.2,30.12,NW,304,5.7,9.2,76,0.00,CLR,SKC,0.00,WeatherDisplay:10.37,2013-04-02 13:20:00,
2013-04-02 08:25:00,24.9,18.4,30.12,WNW,298,5.1,6.9,76,0.00,CLR,SKC,0.00,WeatherDisplay:10.37,2013-04-02 13:25:00,
2013-04-02 08:30:00,25.1,18.6,30.12,NW,304,5.3,7.0,76,0.00,CLR,SKC,0.00,WeatherDisplay:10.37,2013-04-02 13:30:00,
2013-04-02 08:35:00,25.3,18.8,30.12,NW,304,5.3,7.0,76,0.00,CLR,SKC,0.00,WeatherDisplay:10.37,2013-04-02 13:35:00,
2013-04-02 08:40:00,25.4,18.9,30.12,WNW,298,5.9,9.2,76,0.00,CLR,SKC,0.00,WeatherDisplay:10.37,2013-04-02 13:40:00,
2013-04-02 08:45:00,25.5,19.0,30.12,NW,306,6.7,9.2,76,0.00,CLR,SKC,0.00,WeatherDisplay:10.37,2013-04-02 13:45:00,
2013-04-02 08:50:00,25.7,19.2,30.12,WNW,302,6.7,10.4,76,0.00,CLR,SKC,0.00,WeatherDisplay:10.37,2013-04-02 13:50:00,
2013-04-02 08:55:00,26.0,19.5,30.12,NW,304,5.7,9.2,76,0.00,CLR,SKC,0.00,WeatherDisplay:10.37,2013-04-02 13:55:00,
2013-04-02 09:00:00,26.1,19.6,30.12,WNW,300,7.3,11.5,76,0.00,CLR,SKC,0.00,WeatherDisplay:10.37,2013-04-02 14:00:00,
2013-04-02 09:05:00,26.1,19.6,30.12,WNW,302,6.6,10.4,76,0.00,CLR,SKC,0.00,WeatherDisplay:10.37,2013-04-02 14:05:00,
2013-04-02 09:10:00,26.3,19.8,30.12,WNW,294,5.7,9.2,76,0.00,CLR,SKC,0.00,WeatherDisplay:10.37,2013-04-02 14:10:00,
2013-04-02 09:15:00,26.7,20.1,30.12,NW,307,6.8,9.2,76,0.00,CLR,SKC,0.00,WeatherDisplay:10.37,2013-04-02 14:15:00,
2013-04-02 09:20:00,26.9,20.3,30.12,NW,307,7.0,8.1,76,0.00,CLR,SKC,0.00,WeatherDisplay:10.37,2013-04-02 14:20:00,
2013-04-02 09:25:00,27.0,20.4,30.12,WNW,302,8.3,10.4,76,0.00,CLR,SKC,0.00,WeatherDisplay:10.37,2013-04-02 14:25:00,
2013-04-02 09:30:00,26.8,20.2,30.12,NW,304,8.0,10.4,76,0.00,CLR,SKC,0.00,WeatherDisplay:10.37,2013-04-02 14:30:00,
2013-04-02 09:35:00,27.0,20.4,30.12,WNW,301,7.2,9.0,76,0.00,CLR,SKC,0.00,WeatherDisplay:10.37,2013-04-02 14:35:00,
2013-04-02 09:40:00,27.0,20.4,30.12,WNW,286,9.6,11.5,76,0.00,CLR,SKC,0.00,WeatherDisplay:10.37,2013-04-02 14:40:00,
2013-04-02 09:45:00,27.3,20.7,30.12,WNW,291,6.3,10.4,76,0.00,SCT,SKC,0.00,WeatherDisplay:10.37,2013-04-02 14:45:00,
2013-04-02 09:50:00,27.8,21.2,30.12,WNW,300,6.8,10.4,76,0.00,SCT,SKC,0.00,WeatherDisplay:10.37,2013-04-02 14:50:00,
2013-04-02 09:55:00,28.0,21.1,30.12,WNW,302,8.0,11.5,75,0.00,SCT,SKC,0.00,WeatherDisplay:10.37,2013-04-02 14:55:00,
2013-04-02 10:00:00,28.2,21.3,30.12,NW,305,6.2,9.2,75,0.00,SCT,SKC,0.00,WeatherDisplay:10.37,2013-04-02 15:00:00,
2013-04-02 10:05:00,28.1,21.2,30.12,WNW,302,5.9,11.5,75,0.00,SCT,SKC,0.00,WeatherDisplay:10.37,2013-04-02 15:05:00,
2013-04-02 10:10:00,28.5,21.6,30.12,WNW,303,7.3,9.2,75,0.00,SCT,SKC,0.00,WeatherDisplay:10.37,2013-04-02 15:10:00,
2013-04-02 10:15:00,28.6,21.7,30.12,West,279,6.6,11.5,75,0.00,SCT,SKC,0.00,WeatherDisplay:10.37,2013-04-02 15:15:00,
2013-04-02 10:20:00,28.3,21.1,30.12,WNW,301,5.8,10.4,74,0.00,SCT,SKC,0.00,WeatherDisplay:10.37,2013-04-02 15:20:00,
2013-04-02 10:25:00,28.3,21.4,30.12,WNW,298,5.4,9.2,75,0.00,SCT,SKC,0.00,WeatherDisplay:10.37,2013-04-02 15:25:00,
2013-04-02 10:30:00,28.4,21.5,30.12,WNW,302,8.7,11.0,75,0.00,SCT,SKC,0.00,WeatherDisplay:10.37,2013-04-02 15:30:00,
2013-04-02 10:35:00,28.3,21.4,30.12,WNW,296,6.2,10.4,75,0.00,SCT,SKC,0.00,WeatherDisplay:10.37,2013-04-02 15:35:00,
2013-04-02 10:40:00,29.0,22.1,30.12,NNW,327,4.6,6.9,75,0.00,SCT,SKC,0.00,WeatherDisplay:10.37,2013-04-02 15:40:00,
2013-04-02 10:45:00,30.0,22.7,30.12,WNW,303,6.9,9.0,74,0.00,SCT,SKC,0.00,WeatherDisplay:10.37,2013-04-02 15:45:00,
2013-04-02 10:51:00,30.0,22.7,30.12,NW,307,6.0,12.0,74,0.00,SCT,SKC,0.00,WeatherDisplay:10.37,2013-04-02 15:51:00,
2013-04-02 10:56:00,29.9,22.6,30.12,WNW,303,5.6,9.2,74,0.00,SCT,SKC,0.00,WeatherDisplay:10.37,2013-04-02 15:56:00,
2013-04-02 11:02:00,30.2,22.6,30.12,WNW,303,5.7,9.2,73,0.00,SCT,SKC,0.00,WeatherDisplay:10.37,2013-04-02 16:02:00,
2013-04-02 11:07:00,30.3,23.0,30.12,WNW,301,6.8,9.2,74,0.00,SCT,SKC,0.00,WeatherDisplay:10.37,2013-04-02 16:07:00,
2013-04-02 11:13:00,30.5,23.2,30.12,WNW,299,6.7,9.0,74,0.00,SCT,SKC,0.00,WeatherDisplay:10.37,2013-04-02 16:13:00,
2013-04-02 11:18:00,31.0,23.4,30.12,WNW,299,5.8,9.2,73,0.00,SCT,SKC,0.00,WeatherDisplay:10.37,2013-04-02 16:18:00,
2013-04-02 11:23:00,30.7,22.7,30.12,NW,305,6.6,11.5,72,0.00,SCT,SKC,0.00,WeatherDisplay:10.37,2013-04-02 16:23:00,
2013-04-02 11:28:00,31.0,23.0,30.12,WNW,300,5.9,9.2,72,0.00,SCT,SKC,0.00,WeatherDisplay:10.37,2013-04-02 16:28:00,
2013-04-02 11:33:00,31.2,23.2,30.12,WNW,292,8.0,9.2,72,0.00,SCT,SKC,0.00,WeatherDisplay:10.37,2013-04-02 16:33:00,
2013-04-02 11:39:00,31.2,22.9,30.12,WNW,291,6.0,9.0,71,0.00,SCT,SKC,0.00,WeatherDisplay:10.37,2013-04-02 16:39:00,
2013-04-02 11:44:00,31.4,23.4,30.12,WNW,299,6.7,8.0,72,0.00,SCT,SKC,0.00,WeatherDisplay:10.37,2013-04-02 16:44:00,
2013-04-02 11:49:00,31.6,23.3,30.12,WNW,300,6.5,9.0,71,0.00,SCT,SKC,0.00,WeatherDisplay:10.37,2013-04-02 16:49:00,
2013-04-02 11:54:00,31.7,23.4,30.12,NW,304,4.8,9.2,71,0.00,SCT,SKC,0.00,WeatherDisplay:10.37,2013-04-02 16:54:00,
2013-04-02 11:59:00,31.9,23.9,30.12,NW,306,7.2,10.4,72,0.00,SCT,SKC,0.00,WeatherDisplay:10.37,2013-04-02 16:59:00,
2013-04-02 12:04:00,31.7,23.4,30.12,WNW,303,7.8,10.4,71,0.00,SCT,SKC,0.00,WeatherDisplay:10.37,2013-04-02 17:04:00,
2013-04-02 12:09:00,31.9,23.2,30.12,NW,305,5.8,8.0,70,0.00,SCT,SKC,0.00,WeatherDisplay:10.37,2013-04-02 17:09:00,
2013-04-02 12:14:00,32.3,23.3,30.12,WNW,303,5.0,11.5,69,0.00,SCT,SKC,0.00,WeatherDisplay:10.37,2013-04-02 17:14:00,
2013-04-02 12:19:00,32.7,24.0,30.12,NW,306,7.2,10.0,70,0.00,SCT,SKC,0.00,WeatherDisplay:10.37,2013-04-02 17:19:00,
2013-04-02 12:24:00,32.6,23.6,30.12,WNW,300,5.2,8.1,69,0.00,CLR,SKC,0.00,WeatherDisplay:10.37,2013-04-02 17:24:00,
2013-04-02 12:29:00,32.9,24.2,30.12,WNW,288,6.7,9.0,70,0.00,CLR,SKC,0.00,WeatherDisplay:10.37,2013-04-02 17:29:00,
2013-04-02 12:34:00,32.9,24.5,30.12,WNW,297,7.9,10.0,71,0.00,CLR,SKC,0.00,WeatherDisplay:10.37,2013-04-02 17:34:00,
2013-04-02 12:39:00,33.2,24.8,30.12,WNW,291,5.7,9.0,71,0.00,CLR,SKC,0.00,WeatherDisplay:10.37,2013-04-02 17:39:00,
2013-04-02 12:44:00,33.2,24.8,30.12,WNW,300,6.8,9.2,71,0.00,SCT,SKC,0.00,WeatherDisplay:10.37,2013-04-02 17:44:00,
2013-04-02 12:49:00,33.5,24.4,30.12,NW,308,6.5,11.5,69,0.00,SCT,SKC,0.00,WeatherDisplay:10.37,2013-04-02 17:49:00,
2013-04-02 12:55:00,33.6,24.2,30.12,NW,306,5.8,9.2,68,0.00,SCT,SKC,0.00,WeatherDisplay:10.37,2013-04-02 17:55:00,
2013-04-02 13:00:00,33.6,24.2,30.12,WNW,299,4.8,9.2,68,0.00,SCT,SKC,0.00,WeatherDisplay:10.37,2013-04-02 18:00:00,
2013-04-02 13:05:00,33.8,24.4,30.12,NW,306,7.4,11.0,68,0.00,SCT,SKC,0.00,WeatherDisplay:10.37,2013-04-02 18:05:00,
2013-04-02 13:11:00,33.8,24.4,30.12,WNW,297,7.9,10.4,68,0.00,SCT,SKC,0.00,WeatherDisplay:10.37,2013-04-02 18:11:00,
2013-04-02 13:16:00,33.7,23.9,30.12,NW,307,6.6,10.4,67,0.00,SCT,SKC,0.00,WeatherDisplay:10.37,2013-04-02 18:16:00,
2013-04-02 13:21:00,34.3,25.5,30.12,NW,312,3.8,8.1,70,0.00,SCT,SKC,0.00,WeatherDisplay:10.37,2013-04-02 18:21:00,
2013-04-02 13:26:00,34.2,24.0,30.12,NW,317,3.3,6.0,66,0.00,SCT,SKC,0.00,WeatherDisplay:10.37,2013-04-02 18:26:00,
2013-04-02 13:32:00,34.2,24.0,30.12,WNW,301,4.7,8.0,66,0.00,SCT,SKC,0.00,WeatherDisplay:10.37,2013-04-02 18:32:00,
2013-04-02 13:37:00,34.6,25.5,30.12,WNW,301,7.3,8.1,69,0.00,SCT,SKC,0.00,WeatherDisplay:10.37,2013-04-02 18:37:00,
2013-04-02 13:42:00,35.1,25.2,30.12,WNW,301,5.0,7.0,67,0.00,SCT,SKC,0.00,WeatherDisplay:10.37,2013-04-02 18:42:00,
2013-04-02 13:47:00,34.1,23.6,30.12,NW,311,4.4,6.9,65,0.00,SCT,SKC,0.00,WeatherDisplay:10.37,2013-04-02 18:47:00,
2013-04-02 13:52:00,34.0,23.8,30.11,WNW,299,8.5,10.4,66,0.00,SCT,SKC,0.00,WeatherDisplay:10.37,2013-04-02 18:52:00,
2013-04-02 13:58:00,34.3,24.1,30.12,NW,321,4.8,7.0,66,0.00,SCT,SKC,0.00,WeatherDisplay:10.37,2013-04-02 18:58:00,
2013-04-02 14:03:00,34.3,23.0,30.11,NW,306,9.0,12.0,63,0.00,SCT,SKC,0.00,WeatherDisplay:10.37,2013-04-02 19:03:00,
2013-04-02 14:08:00,34.4,23.8,30.11,NW,308,6.3,8.1,65,0.00,SCT,SKC,0.00,WeatherDisplay:10.37,2013-04-02 19:08:00,
2013-04-02 14:14:00,34.9,23.6,30.11,WNW,300,7.7,11.5,63,0.00,SCT,SKC,0.00,WeatherDisplay:10.37,2013-04-02 19:14:00,
2013-04-02 14:19:00,34.6,22.9,30.11,NW,306,6.5,11.5,62,0.00,SCT,SKC,0.00,WeatherDisplay:10.37,2013-04-02 19:19:00,
2013-04-02 14:24:00,34.9,23.6,30.11,WNW,302,5.2,6.9,63,0.00,CLR,SKC,0.00,WeatherDisplay:10.37,2013-04-02 19:24:00,
2013-04-02 14:29:00,35.2,25.0,30.11,WNW,298,7.0,10.0,66,0.00,CLR,SKC,0.00,WeatherDisplay:10.37,2013-04-02 19:29:00,
2013-04-02 14:35:00,35.3,24.3,30.11,WNW,297,4.4,8.1,64,0.00,CLR,SKC,0.00,WeatherDisplay:10.37,2013-04-02 19:35:00,
2013-04-02 14:40:00,35.3,24.3,30.11,NW,310,6.8,9.2,64,0.00,CLR,SKC,0.00,WeatherDisplay:10.37,2013-04-02 19:40:00,
2013-04-02 14:45:00,35.7,25.1,30.11,NW,304,7.6,10.4,65,0.00,CLR,SKC,0.00,WeatherDisplay:10.37,2013-04-02 19:45:00,
2013-04-02 14:50:00,35.9,24.1,30.11,NW,310,5.0,7.0,62,0.00,CLR,SKC,0.00,WeatherDisplay:10.37,2013-04-02 19:50:00,
2013-04-02 14:56:00,35.9,24.1,30.10,WNW,301,8.6,11.5,62,0.00,CLR,SKC,0.00,WeatherDisplay:10.37,2013-04-02 19:56:00,
2013-04-02 15:01:00,35.6,23.9,30.10,WNW,286,7.3,10.0,62,0.00,CLR,SKC,0.00,WeatherDisplay:10.37,2013-04-02 20:01:00,
2013-04-02 15:07:00,36.1,24.3,30.10,WNW,295,8.4,11.0,62,0.00,CLR,SKC,0.00,WeatherDisplay:10.37,2013-04-02 20:07:00,
2013-04-02 15:13:00,35.9,23.0,30.10,WNW,297,6.4,9.2,59,0.00,CLR,SKC,0.00,WeatherDisplay:10.37,2013-04-02 20:13:00,
2013-04-02 15:18:00,36.2,24.8,30.10,WNW,301,4.9,8.0,63,0.00,CLR,SKC,0.00,WeatherDisplay:10.37,2013-04-02 20:18:00,
2013-04-02 15:23:00,35.9,23.4,30.10,WNW,294,9.0,11.0,60,0.00,CLR,SKC,0.00,WeatherDisplay:10.37,2013-04-02 20:23:00,
2013-04-02 15:28:00,35.9,23.7,30.10,NW,305,6.4,9.0,61,0.00,CLR,SKC,0.00,WeatherDisplay:10.37,2013-04-02 20:28:00,
2013-04-02 15:33:00,36.5,25.1,30.10,WNW,300,4.0,5.8,63,0.00,CLR,SKC,0.00,WeatherDisplay:10.37,2013-04-02 20:33:00,
2013-04-02 15:38:00,36.6,25.2,30.10,WNW,299,6.2,10.4,63,0.00,CLR,SKC,0.00,WeatherDisplay:10.37,2013-04-02 20:38:00,
2013-04-02 15:43:00,36.4,24.2,30.10,NW,310,7.0,10.0,61,0.00,SCT,SKC,0.00,WeatherDisplay:10.37,2013-04-02 20:43:00,
2013-04-02 15:48:00,36.7,23.7,30.10,WNW,300,4.6,6.0,59,0.00,SCT,SKC,0.00,WeatherDisplay:10.37,2013-04-02 20:48:00,
2013-04-02 15:53:00,36.7,23.7,30.10,NW,304,8.1,11.5,59,0.00,SCT,SKC,0.00,WeatherDisplay:10.37,2013-04-02 20:53:00,
2013-04-02 15:58:00,36.7,22.9,30.10,NNW,329,3.4,5.8,57,0.00,SCT,SKC,0.00,WeatherDisplay:10.37,2013-04-02 20:58:00,
2013-04-02 16:04:00,36.9,22.7,30.10,NNW,342,6.6,9.0,56,0.00,CLR,SKC,0.00,WeatherDisplay:10.37,2013-04-02 21:04:00,
2013-04-02 16:09:00,36.8,22.1,30.10,NNW,339,2.8,4.0,55,0.00,CLR,SKC,0.00,WeatherDisplay:10.37,2013-04-02 21:09:00,
2013-04-02 16:14:00,36.8,23.0,30.10,NW,309,4.3,8.0,57,0.00,CLR,SKC,0.00,WeatherDisplay:10.37,2013-04-02 21:14:00,
2013-04-02 16:19:00,36.9,23.5,30.10,NW,310,3.1,5.0,58,0.00,CLR,SKC,0.00,WeatherDisplay:10.37,2013-04-02 21:19:00,
2013-04-02 16:24:00,36.9,23.5,30.10,NW,317,3.5,9.2,58,0.00,CLR,SKC,0.00,WeatherDisplay:10.37,2013-04-02 21:24:00,
2013-04-02 16:29:00,36.8,23.0,30.10,NW,315,5.1,8.0,57,0.00,CLR,SKC,0.00,WeatherDisplay:10.37,2013-04-02 21:29:00,
2013-04-02 16:34:00,36.6,22.8,30.10,NW,323,4.5,6.0,57,0.00,CLR,SKC,0.00,WeatherDisplay:10.37,2013-04-02 21:34:00,
2013-04-02 16:39:00,36.5,22.7,30.10,NNW,327,2.4,4.0,57,0.00,CLR,SKC,0.00,WeatherDisplay:10.37,2013-04-02 21:39:00,
2013-04-02 16:44:00,36.6,22.8,30.10,WNW,300,6.3,7.0,57,0.00,CLR,SKC,0.00,WeatherDisplay:10.37,2013-04-02 21:44:00,
2013-04-02 16:50:00,36.4,23.0,30.10,NNW,329,3.2,8.1,58,0.00,CLR,SKC,0.00,WeatherDisplay:10.37,2013-04-02 21:50:00,
2013-04-02 16:55:00,36.4,23.0,30.10,WNW,302,5.1,7.0,58,0.00,CLR,SKC,0.00,WeatherDisplay:10.37,2013-04-02 21:55:00,
2013-04-02 17:00:00,36.2,24.0,30.10,WNW,300,4.7,6.0,61,0.00,CLR,SKC,0.00,WeatherDisplay:10.37,2013-04-02 22:00:00,
2013-04-02 17:06:00,36.1,23.1,30.10,NNW,340,1.8,4.0,59,0.00,CLR,SKC,0.00,WeatherDisplay:10.37,2013-04-02 22:06:00,
2013-04-02 17:11:00,36.4,23.4,30.10,WNW,303,5.8,8.0,59,0.00,CLR,SKC,0.00,WeatherDisplay:10.37,2013-04-02 22:11:00,
2013-04-02 17:16:00,35.9,22.5,30.10,WNW,297,4.3,6.0,58,0.00,CLR,SKC,0.00,WeatherDisplay:10.37,2013-04-02 22:16:00,
2013-04-02 17:21:00,36.0,22.2,30.10,North,5,2.2,5.0,57,0.00,CLR,SKC,0.00,WeatherDisplay:10.37,2013-04-02 22:21:00,
2013-04-02 17:26:00,36.1,21.9,30.10,North,355,3.8,7.0,56,0.00,CLR,SKC,0.00,WeatherDisplay:10.37,2013-04-02 22:26:00,
2013-04-02 17:31:00,36.0,22.6,30.10,NW,306,4.3,6.0,58,0.00,CLR,SKC,0.00,WeatherDisplay:10.37,2013-04-02 22:31:00,
2013-04-02 17:36:00,35.7,23.2,30.11,NNE,19,2.7,5.0,60,0.00,CLR,SKC,0.00,WeatherDisplay:10.37,2013-04-02 22:36:00,
2013-04-02 17:41:00,35.7,21.9,30.11,NNW,329,3.3,4.0,57,0.00,CLR,SKC,0.00,WeatherDisplay:10.37,2013-04-02 22:41:00,
2013-04-02 17:46:00,35.7,22.8,30.11,North,360,3.2,6.9,59,0.00,CLR,SKC,0.00,WeatherDisplay:10.37,2013-04-02 22:46:00,
2013-04-02 17:51:00,35.8,22.9,30.11,NNW,341,2.5,4.0,59,0.00,CLR,SKC,0.00,WeatherDisplay:10.37,2013-04-02 22:51:00,
2013-04-02 17:56:00,35.6,21.9,30.11,NNW,340,3.7,5.0,57,0.00,CLR,SKC,0.00,WeatherDisplay:10.37,2013-04-02 22:56:00,
2013-04-02 18:01:00,35.4,21.7,30.11,North,360,2.4,5.8,57,0.00,CLR,SKC,0.00,WeatherDisplay:10.37,2013-04-02 23:01:00,
2013-04-02 18:07:00,35.2,21.9,30.11,North,351,3.1,5.0,58,0.00,CLR,SKC,0.00,WeatherDisplay:10.37,2013-04-02 23:07:00,
2013-04-02 18:12:00,35.1,22.6,30.11,North,10,1.6,3.0,60,0.00,CLR,SKC,0.00,WeatherDisplay:10.37,2013-04-02 23:12:00,
2013-04-02 18:17:00,35.0,22.1,30.11,NNW,342,2.7,5.0,59,0.00,CLR,SKC,0.00,WeatherDisplay:10.37,2013-04-02 23:17:00,
2013-04-02 18:23:00,34.7,21.0,30.11,NNW,346,0.7,4.6,57,0.00,CLR,SKC,0.00,WeatherDisplay:10.37,2013-04-02 23:23:00,
2013-04-02 18:28:00,34.6,20.9,30.12,NNW,340,1.8,3.5,57,0.00,CLR,SKC,0.00,WeatherDisplay:10.37,2013-04-02 23:28:00,
2013-04-02 18:33:00,34.4,20.7,30.12,WNW,292,2.4,5.0,57,0.00,CLR,SKC,0.00,WeatherDisplay:10.37,2013-04-02 23:33:00,
2013-04-02 18:38:00,34.3,21.0,30.12,NW,309,1.2,3.5,58,0.00,CLR,SKC,0.00,WeatherDisplay:10.37,2013-04-02 23:38:00,
2013-04-02 18:44:00,34.2,21.4,30.12,NW,309,2.3,4.0,59,0.00,CLR,SKC,0.00,WeatherDisplay:10.37,2013-04-02 23:44:00,
2013-04-02 18:49:00,34.1,20.9,30.12,NW,307,4.2,5.0,58,0.00,CLR,SKC,0.00,WeatherDisplay:10.37,2013-04-02 23:49:00,
2013-04-02 18:54:00,33.9,21.9,30.12,NW,304,2.1,3.5,61,0.00,CLR,SKC,0.00,WeatherDisplay:10.37,2013-04-02 23:54:00,
2013-04-02 18:59:00,33.7,21.3,30.12,NW,306,0.9,2.3,60,0.00,CLR,SKC,0.00,WeatherDisplay:10.37,2013-04-02 23:59:00,
2013-04-02 19:04:00,33.7,20.9,30.12,NNW,338,1.2,4.6,59,0.00,CLR,SKC,0.00,WeatherDisplay:10.37,2013-04-03 00:04:00,
2013-04-02 19:10:00,33.7,21.3,30.12,NNW,338,1.3,2.3,60,0.00,CLR,SKC,0.00,WeatherDisplay:10.37,2013-04-03 00:10:00,
2013-04-02 19:15:00,33.6,21.2,30.12,NNW,338,0.0,2.3,60,0.00,CLR,SKC,0.00,WeatherDisplay:10.37,2013-04-03 00:15:00,
2013-04-02 19:20:00,33.5,21.9,30.12,NNW,338,0.1,1.1,62,0.00,CLR,SKC,0.00,WeatherDisplay:10.37,2013-04-03 00:20:00,
2013-04-02 19:26:00,33.3,22.4,30.12,NNW,338,0.1,1.1,64,0.00,CLR,SKC,0.00,WeatherDisplay:10.37,2013-04-03 00:26:00,
2013-04-02 19:32:00,33.0,22.1,30.12,NNW,338,0.3,2.0,64,0.00,CLR,SKC,0.00,WeatherDisplay:10.37,2013-04-03 00:32:00,
2013-04-02 19:37:00,32.8,22.0,30.12,NNW,338,0.2,1.0,64,0.00,CLR,SKC,0.00,WeatherDisplay:10.37,2013-04-03 00:37:00,
2013-04-02 19:42:00,32.6,22.1,30.12,NNW,338,0.7,2.0,65,0.00,CLR,SKC,0.00,WeatherDisplay:10.37,2013-04-03 00:42:00,
2013-04-02 19:48:00,32.4,21.9,30.12,NNW,338,0.8,3.0,65,0.00,CLR,SKC,0.00,WeatherDisplay:10.37,2013-04-03 00:48:00,
2013-04-02 19:53:00,32.2,22.5,30.12,NNW,338,0.0,0.0,67,0.00,CLR,SKC,0.00,WeatherDisplay:10.37,2013-04-03 00:53:00,
2013-04-02 19:58:00,32.0,21.9,30.12,NNW,338,0.0,0.0,66,0.00,CLR,SKC,0.00,WeatherDisplay:10.37,2013-04-03 00:58:00,
2013-04-02 20:04:00,31.7,22.0,30.12,NNW,338,0.0,0.0,67,0.00,CLR,SKC,0.00,WeatherDisplay:10.37,2013-04-03 01:04:00,
2013-04-02 20:09:00,31.6,22.2,30.12,NNW,338,0.0,0.0,68,0.00,CLR,SKC,0.00,WeatherDisplay:10.37,2013-04-03 01:09:00,
2013-04-02 20:15:00,31.4,22.1,30.12,NNW,338,0.0,1.1,68,0.00,CLR,SKC,0.00,WeatherDisplay:10.37,2013-04-03 01:15:00,
2013-04-02 20:20:00,31.3,22.6,30.12,NNW,338,0.0,0.0,70,0.00,CLR,SKC,0.00,WeatherDisplay:10.37,2013-04-03 01:20:00,
2013-04-02 20:25:00,31.1,22.5,30.12,NNW,338,0.0,0.0,70,0.00,CLR,SKC,0.00,WeatherDisplay:10.37,2013-04-03 01:25:00,
2013-04-02 20:30:00,31.0,22.4,30.12,NNW,338,0.0,0.0,70,0.00,CLR,SKC,0.00,WeatherDisplay:10.37,2013-04-03 01:30:00,
2013-04-02 20:35:00,30.8,22.5,30.12,NNW,338,0.0,0.0,71,0.00,CLR,SKC,0.00,WeatherDisplay:10.37,2013-04-03 01:35:00,
2013-04-02 20:41:00,30.7,22.4,30.12,NNW,338,0.0,0.0,71,0.00,CLR,SKC,0.00,WeatherDisplay:10.37,2013-04-03 01:41:00,
2013-04-02 20:46:00,30.6,22.3,30.13,NNW,338,0.0,0.0,71,0.00,CLR,SKC,0.00,WeatherDisplay:10.37,2013-04-03 01:46:00,
2013-04-02 20:51:00,30.5,22.2,30.13,NNW,338,0.0,0.0,71,0.00,CLR,SKC,0.00,WeatherDisplay:10.37,2013-04-03 01:51:00,
2013-04-02 20:56:00,30.3,21.7,30.13,NNW,338,0.0,0.0,70,0.00,CLR,SKC,0.00,WeatherDisplay:10.37,2013-04-03 01:56:00,
2013-04-02 21:01:00,30.1,21.8,30.13,NNW,338,0.0,0.0,71,0.00,CLR,SKC,0.00,WeatherDisplay:10.37,2013-04-03 02:01:00,
2013-04-02 21:06:00,30.0,22.1,30.13,NNW,338,0.0,0.0,72,0.00,CLR,SKC,0.00,WeatherDisplay:10.37,2013-04-03 02:06:00,
2013-04-02 21:11:00,29.8,21.9,30.14,NNW,338,0.0,0.0,72,0.00,CLR,SKC,0.00,WeatherDisplay:10.37,2013-04-03 02:11:00,
2013-04-02 21:16:00,29.7,21.8,30.13,NNW,338,0.0,0.0,72,0.00,CLR,SKC,0.00,WeatherDisplay:10.37,2013-04-03 02:16:00,
2013-04-02 21:21:00,29.5,21.9,30.14,NNW,338,0.0,0.0,73,0.00,CLR,SKC,0.00,WeatherDisplay:10.37,2013-04-03 02:21:00,
2013-04-02 21:27:00,29.3,22.0,30.14,NNW,338,0.0,0.0,74,0.00,CLR,SKC,0.00,WeatherDisplay:10.37,2013-04-03 02:27:00,
2013-04-02 21:32:00,29.1,22.2,30.14,NNW,338,0.0,0.0,75,0.00,CLR,SKC,0.00,WeatherDisplay:10.37,2013-04-03 02:32:00,
2013-04-02 21:37:00,29.0,21.7,30.14,NNW,338,0.0,0.0,74,0.00,CLR,SKC,0.00,WeatherDisplay:10.37,2013-04-03 02:37:00,
2013-04-02 21:42:00,28.9,21.7,30.14,NNW,338,0.0,0.0,74,0.00,CLR,SKC,0.00,WeatherDisplay:10.37,2013-04-03 02:42:00,
2013-04-02 21:48:00,28.6,22.0,30.14,NNW,338,0.0,0.0,76,0.00,CLR,SKC,0.00,WeatherDisplay:10.37,2013-04-03 02:48:00,
2013-04-02 21:53:00,28.4,21.5,30.14,NNW,338,0.0,0.0,75,0.00,CLR,SKC,0.00,WeatherDisplay:10.37,2013-04-03 02:53:00,
2013-04-02 21:58:00,28.4,21.2,30.14,NNW,338,0.0,0.0,74,0.00,CLR,SKC,0.00,WeatherDisplay:10.37,2013-04-03 02:58:00,
2013-04-02 22:03:00,28.3,21.1,30.14,NNW,338,0.0,0.0,74,0.00,CLR,SKC,0.00,WeatherDisplay:10.37,2013-04-03 03:03:00,
2013-04-02 22:08:00,28.3,21.4,30.14,NNW,338,0.0,0.0,75,0.00,CLR,SKC,0.00,WeatherDisplay:10.37,2013-04-03 03:08:00,
2013-04-02 22:13:00,28.2,21.3,30.14,NNW,338,0.0,0.0,75,0.00,CLR,SKC,0.00,WeatherDisplay:10.37,2013-04-03 03:13:00,
2013-04-02 22:19:00,28.1,21.2,30.14,NNW,338,0.0,0.0,75,0.00,CLR,SKC,0.00,WeatherDisplay:10.37,2013-04-03 03:19:00,
2013-04-02 22:24:00,28.0,21.1,30.14,NNW,338,0.0,0.0,75,0.00,CLR,SKC,0.00,WeatherDisplay:10.37,2013-04-03 03:24:00,
2013-04-02 22:29:00,28.0,21.1,30.14,NNW,338,0.0,0.0,75,0.00,CLR,SKC,0.00,WeatherDisplay:10.37,2013-04-03 03:29:00,
2013-04-02 22:34:00,28.0,21.1,30.14,NNW,338,0.0,0.0,75,0.00,CLR,SKC,0.00,WeatherDisplay:10.37,2013-04-03 03:34:00,
2013-04-02 22:40:00,27.9,21.0,30.14,NNW,338,0.0,0.0,75,0.00,CLR,SKC,0.00,WeatherDisplay:10.37,2013-04-03 03:40:00,
2013-04-02 22:45:00,27.8,20.9,30.15,NNW,338,0.0,0.0,75,0.00,CLR,SKC,0.00,WeatherDisplay:10.37,2013-04-03 03:45:00,
2013-04-02 22:50:00,27.7,20.8,30.14,NNW,338,0.0,1.0,75,0.00,CLR,SKC,0.00,WeatherDisplay:10.37,2013-04-03 03:50:00,
2013-04-02 22:56:00,27.5,20.6,30.15,NNW,338,0.6,2.0,75,0.00,CLR,SKC,0.00,WeatherDisplay:10.37,2013-04-03 03:56:00,
2013-04-02 23:00:00,27.5,20.6,30.15,NNW,338,0.0,2.3,75,0.00,CLR,SKC,0.00,WeatherDisplay:10.37,2013-04-03 04:00:00,
2013-04-02 23:01:00,27.5,20.6,30.15,NNW,338,0.0,0.0,75,0.00,CLR,SKC,0.00,WeatherDisplay:10.37,2013-04-03 04:01:00,
2013-04-02 23:03:00,27.5,20.6,30.15,NNW,338,0.0,0.0,75,0.00,CLR,SKC,0.00,WeatherDisplay:10.37,2013-04-03 04:03:00,
2013-04-02 23:07:00,27.5,20.6,30.15,NNW,338,0.0,0.0,75,0.00,CLR,SKC,0.00,WeatherDisplay:10.37,2013-04-03 04:07:00,
2013-04-02 23:13:00,27.3,20.4,30.15,NNW,338,0.0,1.1,75,0.00,CLR,SKC,0.00,WeatherDisplay:10.37,2013-04-03 04:13:00,
2013-04-02 23:18:00,27.2,20.3,30.15,NNW,338,0.0,0.0,75,0.00,CLR,SKC,0.00,WeatherDisplay:10.37,2013-04-03 04:18:00,
2013-04-02 23:23:00,27.2,20.3,30.14,NNW,338,0.0,0.0,75,0.00,CLR,SKC,0.00,WeatherDisplay:10.37,2013-04-03 04:23:00,
2013-04-02 23:28:00,27.1,20.5,30.15,NNW,338,0.0,0.0,76,0.00,CLR,SKC,0.00,WeatherDisplay:10.37,2013-04-03 04:28:00,
2013-04-02 23:33:00,27.1,20.5,30.15,NNW,338,0.1,0.0,76,0.00,CLR,SKC,0.00,WeatherDisplay:10.37,2013-04-03 04:33:00,
2013-04-02 23:38:00,27.1,20.2,30.14,NNW,338,0.0,0.0,75,0.00,CLR,SKC,0.00,WeatherDisplay:10.37,2013-04-03 04:38:00,
2013-04-02 23:44:00,27.1,20.5,30.15,NNW,338,0.0,0.0,76,0.00,CLR,SKC,0.00,WeatherDisplay:10.37,2013-04-03 04:44:00,
2013-04-02 23:49:00,27.0,20.1,30.15,NNW,338,0.0,0.0,75,0.00,CLR,SKC,0.00,WeatherDisplay:10.37,2013-04-03 04:49:00,
2013-04-02 23:54:00,27.0,20.4,30.15,NNW,338,0.0,0.0,76,0.00,CLR,SKC,0.00,WeatherDisplay:10.37,2013-04-03 04:54:00,